Back to catalog

DIANLI HONGWEI A

AliveScienceSSO
NORAD 67748·PAYLOAD·🇨🇳 China
This satellite name has not been confirmed by official sources yet.

Launched Feb 12, 2026 from South China Sea Launch Area

Loading…

Next Passes (next 24 hours)

TLE

FreshSource: Space-Track

Epoch: Sep 13, 2026, 22:26 UTC

1 67748U 26027C   26256.93537667  .00003452  00000-0  16576-3 0  9998
2 67748  97.5188  24.6156 0009038 270.6934  89.3265 15.19496651 32439

Track DIANLI HONGWEI A in real time with AllMySat

Download on the App Store